Saint Bonnet de Bellac- Haute Vienne - France
Donnes mto: mardi, 13/03/2012
Date Horaire Temp. E. Hum. E. P.atmo. Pluie Vent Direction Direction Ensoleilleme Solaire P. de rose Temp au vent Rafales
13/03/2012 00:00 7,8 C 77 % 1027,1 hPa 0,0 mm 0,7 km/h (0 Bft) N-NE 22 0 min 0 W/m 4,0 C 7,8 C 4,0 km/h (1 Bft)
13/03/2012 00:10 7,7 C 78 % 1027,0 hPa 0,0 mm 3,6 km/h (1 Bft) NE 45 0 min 0 W/m 4,1 C 7,7 C 3,6 km/h (1 Bft)
13/03/2012 00:20 7,6 C 79 % 1026,9 hPa 0,0 mm 0,0 km/h (0 Bft) NE 45 0 min 0 W/m 4,2 C 7,6 C 0,0 km/h (0 Bft)
13/03/2012 00:30 7,4 C 79 % 1026,8 hPa 0,0 mm 0,0 km/h (0 Bft) E-NE 67 0 min 0 W/m 4,0 C 7,4 C 0,0 km/h (0 Bft)
13/03/2012 00:40 7,0 C 80 % 1026,9 hPa 0,0 mm 0,0 km/h (0 Bft) E-NE 67 0 min 0 W/m 3,8 C 7,0 C 0,0 km/h (0 Bft)
13/03/2012 00:50 6,8 C 80 % 1026,8 hPa 0,0 mm 1,4 km/h (1 Bft) NE 45 0 min 0 W/m 3,6 C 6,8 C 2,9 km/h (1 Bft)
13/03/2012 01:00 6,9 C 82 % 1026,8 hPa 0,0 mm 4,3 km/h (1 Bft) NE 45 0 min 0 W/m 4,0 C 6,9 C 4,3 km/h (1 Bft)
13/03/2012 01:10 7,3 C 82 % 1026,8 hPa 0,0 mm 0,0 km/h (0 Bft) NE 45 0 min 0 W/m 4,4 C 7,3 C 0,0 km/h (0 Bft)
13/03/2012 01:20 7,4 C 82 % 1026,8 hPa 0,0 mm 0,0 km/h (0 Bft) NE 45 0 min 0 W/m 4,5 C 7,4 C 0,0 km/h (0 Bft)
13/03/2012 01:30 7,1 C 82 % 1026,9 hPa 0,0 mm 0,0 km/h (0 Bft) NE 45 0 min 0 W/m 4,2 C 7,1 C 0,0 km/h (0 Bft)
13/03/2012 01:40 6,9 C 82 % 1026,9 hPa 0,0 mm 0,0 km/h (0 Bft) N-NE 22 0 min 0 W/m 4,0 C 6,9 C 0,0 km/h (0 Bft)
13/03/2012 01:50 6,9 C 82 % 1026,8 hPa 0,0 mm 2,5 km/h (1 Bft) NE 45 0 min 0 W/m 4,0 C 6,9 C 4,3 km/h (1 Bft)
13/03/2012 02:02 6,9 C 82 % 1026,8 hPa 0,0 mm 0,0 km/h (0 Bft) NE 45 0 min 0 W/m 4,0 C 6,9 C 0,0 km/h (0 Bft)
13/03/2012 02:10 6,9 C 83 % 1026,9 hPa 0,0 mm 0,7 km/h (0 Bft) N-NE 22 0 min 0 W/m 4,2 C 6,9 C 0,7 km/h (0 Bft)
13/03/2012 02:20 6,8 C 83 % 1026,8 hPa 0,0 mm 0,7 km/h (0 Bft) NE 45 0 min 0 W/m 4,1 C 6,8 C 3,6 km/h (1 Bft)
13/03/2012 02:30 6,6 C 83 % 1026,8 hPa 0,0 mm 3,2 km/h (1 Bft) N-NE 22 0 min 0 W/m 3,9 C 6,6 C 6,1 km/h (2 Bft)
13/03/2012 02:40 6,8 C 84 % 1026,9 hPa 0,0 mm 2,9 km/h (1 Bft) NE 45 0 min 0 W/m 4,3 C 6,8 C 7,2 km/h (2 Bft)
13/03/2012 02:50 6,8 C 84 % 1026,7 hPa 0,0 mm 4,0 km/h (1 Bft) NE 45 0 min 0 W/m 4,3 C 6,8 C 8,3 km/h (2 Bft)
13/03/2012 03:00 6,8 C 84 % 1026,6 hPa 0,0 mm 2,2 km/h (1 Bft) NE 45 0 min 0 W/m 4,3 C 6,8 C 4,3 km/h (1 Bft)
13/03/2012 03:10 6,8 C 84 % 1026,6 hPa 0,0 mm 1,4 km/h (1 Bft) E-NE 67 0 min 0 W/m 4,3 C 6,8 C 4,3 km/h (1 Bft)
13/03/2012 03:20 6,8 C 84 % 1026,6 hPa 0,0 mm 0,7 km/h (0 Bft) E-NE 67 0 min 0 W/m 4,3 C 6,8 C 0,7 km/h (0 Bft)
13/03/2012 03:30 6,6 C 85 % 1026,5 hPa 0,0 mm 1,4 km/h (1 Bft) NE 45 0 min 0 W/m 4,3 C 6,6 C 4,0 km/h (1 Bft)
13/03/2012 03:40 6,6 C 85 % 1026,4 hPa 0,0 mm 2,9 km/h (1 Bft) E-NE 67 0 min 0 W/m 4,3 C 6,6 C 4,0 km/h (1 Bft)
13/03/2012 03:50 6,5 C 85 % 1026,3 hPa 0,0 mm 1,1 km/h (1 Bft) NE 45 0 min 0 W/m 4,2 C 6,5 C 3,2 km/h (1 Bft)
13/03/2012 04:00 6,4 C 85 % 1026,3 hPa 0,0 mm 0,4 km/h (0 Bft) NE 45 0 min 0 W/m 4,1 C 6,4 C 0,4 km/h (0 Bft)
13/03/2012 04:10 6,3 C 85 % 1026,1 hPa 0,0 mm 0,7 km/h (0 Bft) NE 45 0 min 0 W/m 4,0 C 6,3 C 4,0 km/h (1 Bft)
13/03/2012 04:20 6,2 C 85 % 1026,0 hPa 0,0 mm 2,2 km/h (1 Bft) NE 45 0 min 0 W/m 3,9 C 6,2 C 3,2 km/h (1 Bft)
13/03/2012 04:30 6,1 C 85 % 1026,0 hPa 0,0 mm 1,4 km/h (1 Bft) NE 45 0 min 0 W/m 3,8 C 6,1 C 6,5 km/h (2 Bft)
13/03/2012 04:40 5,9 C 85 % 1026,0 hPa 0,0 mm 1,4 km/h (1 Bft) N-NE 22 0 min 0 W/m 3,6 C 5,9 C 4,0 km/h (1 Bft)
13/03/2012 04:50 5,8 C 86 % 1026,0 hPa 0,0 mm 0,7 km/h (0 Bft) NE 45 0 min 0 W/m 3,6 C 5,8 C 0,7 km/h (0 Bft)
13/03/2012 05:00 5,6 C 86 % 1026,0 hPa 0,0 mm 0,7 km/h (0 Bft) N-NE 22 0 min 0 W/m 3,4 C 5,6 C 0,7 km/h (0 Bft)
13/03/2012 05:10 5,5 C 86 % 1025,9 hPa 0,0 mm 1,1 km/h (1 Bft) N-NE 22 0 min 0 W/m 3,3 C 5,5 C 2,9 km/h (1 Bft)
13/03/2012 05:20 5,4 C 86 % 1025,8 hPa 0,0 mm 1,1 km/h (1 Bft) N-NE 22 0 min 0 W/m 3,3 C 5,4 C 1,1 km/h (1 Bft)
13/03/2012 05:30 5,4 C 87 % 1025,8 hPa 0,0 mm 0,0 km/h (0 Bft) N 360 0 min 0 W/m 3,4 C 5,4 C 3,2 km/h (1 Bft)
13/03/2012 05:40 5,2 C 87 % 1025,8 hPa 0,0 mm 1,8 km/h (1 Bft) N-NE 22 0 min 0 W/m 3,2 C 5,2 C 7,6 km/h (2 Bft)
13/03/2012 05:50 5,1 C 88 % 1025,9 hPa 0,0 mm 2,9 km/h (1 Bft) NE 45 0 min 0 W/m 3,3 C 5,1 C 5,8 km/h (2 Bft)
13/03/2012 06:00 5,0 C 88 % 1025,8 hPa 0,0 mm 2,9 km/h (1 Bft) N-NE 22 0 min 0 W/m 3,2 C 5,0 C 4,0 km/h (1 Bft)
13/03/2012 06:10 5,1 C 88 % 1025,8 hPa 0,0 mm 2,9 km/h (1 Bft) N-NE 22 0 min 0 W/m 3,3 C 5,1 C 3,6 km/h (1 Bft)
13/03/2012 06:20 5,0 C 88 % 1025,8 hPa 0,0 mm 2,9 km/h (1 Bft) N 360 0 min 0 W/m 3,2 C 5,0 C 2,9 km/h (1 Bft)
13/03/2012 06:30 5,1 C 89 % 1025,8 hPa 0,0 mm 5,8 km/h (2 Bft) NE 45 0 min 0 W/m 3,4 C 3,9 C 8,6 km/h (2 Bft)
13/03/2012 06:40 5,1 C 89 % 1025,9 hPa 0,0 mm 5,4 km/h (2 Bft) NE 45 0 min 0 W/m 3,4 C 4,0 C 11,2 km/h (2 Bft)
13/03/2012 06:50 5,0 C 89 % 1026,0 hPa 0,0 mm 1,4 km/h (1 Bft) NE 45 0 min 0 W/m 3,3 C 5,0 C 1,4 km/h (1 Bft)
13/03/2012 07:00 4,9 C 89 % 1026,0 hPa 0,0 mm 2,2 km/h (1 Bft) NE 45 0 min 0 W/m 3,2 C 4,9 C 4,3 km/h (1 Bft)
13/03/2012 07:10 4,9 C 89 % 1025,9 hPa 0,0 mm 4,3 km/h (1 Bft) N-NE 22 0 min 0 W/m 3,2 C 4,9 C 6,8 km/h (2 Bft)
13/03/2012 07:20 4,9 C 90 % 1026,0 hPa 0,0 mm 2,2 km/h (1 Bft) N 360 0 min 0 W/m 3,4 C 4,9 C 6,8 km/h (2 Bft)
13/03/2012 07:30 4,9 C 90 % 1026,1 hPa 0,0 mm 3,2 km/h (1 Bft) N-NE 22 2 min 0 W/m 3,4 C 4,9 C 4,0 km/h (1 Bft)
13/03/2012 07:40 4,9 C 90 % 1026,2 hPa 0,0 mm 3,6 km/h (1 Bft) NE 45 2 min 0 W/m 3,4 C 4,9 C 4,3 km/h (1 Bft)
13/03/2012 07:50 5,1 C 90 % 1026,1 hPa 0,0 mm 3,6 km/h (1 Bft) NE 45 2 min 0 W/m 3,6 C 5,1 C 4,3 km/h (1 Bft)
13/03/2012 08:00 5,1 C 90 % 1026,1 hPa 0,0 mm 0,7 km/h (0 Bft) NE 45 2 min 0 W/m 3,6 C 5,1 C 3,2 km/h (1 Bft)
13/03/2012 08:10 5,3 C 90 % 1026,1 hPa 0,0 mm 2,5 km/h (1 Bft) NE 45 2 min 0 W/m 3,8 C 5,3 C 4,3 km/h (1 Bft)
13/03/2012 08:20 5,7 C 91 % 1026,1 hPa 0,0 mm 1,8 km/h (1 Bft) NE 45 2 min 0 W/m 4,3 C 5,7 C 3,6 km/h (1 Bft)
13/03/2012 08:30 6,2 C 92 % 1026,2 hPa 0,0 mm 0,4 km/h (0 Bft) NE 45 2 min 0 W/m 5,0 C 6,2 C 0,4 km/h (0 Bft)
13/03/2012 08:40 6,6 C 92 % 1026,2 hPa 0,0 mm 1,8 km/h (1 Bft) N-NE 22 2 min 0 W/m 5,4 C 6,6 C 4,0 km/h (1 Bft)
13/03/2012 08:50 7,1 C 92 % 1026,3 hPa 0,0 mm 0,0 km/h (0 Bft) N-NE 22 2 min 0 W/m 5,9 C 7,1 C 0,0 km/h (0 Bft)
13/03/2012 09:00 7,8 C 91 % 1026,3 hPa 0,0 mm 0,0 km/h (0 Bft) E-NE 67 2 min 0 W/m 6,4 C 7,8 C 3,2 km/h (1 Bft)
13/03/2012 09:10 8,6 C 89 % 1026,4 hPa 0,0 mm 0,0 km/h (0 Bft) N 360 2 min 0 W/m 6,9 C 8,6 C 0,0 km/h (0 Bft)
13/03/2012 09:20 9,4 C 87 % 1026,7 hPa 0,0 mm 1,8 km/h (1 Bft) N-NE 22 2 min 0 W/m 7,3 C 9,4 C 1,8 km/h (1 Bft)
13/03/2012 09:30 10,3 C 85 % 1026,7 hPa 0,0 mm 0,4 km/h (0 Bft) N-NE 22 2 min 0 W/m 7,9 C 10,3 C 3,6 km/h (1 Bft)
13/03/2012 09:40 11,1 C 83 % 1026,6 hPa 0,0 mm 3,2 km/h (1 Bft) N-NE 22 2 min 0 W/m 8,3 C 11,1 C 4,3 km/h (1 Bft)
13/03/2012 09:50 11,7 C 81 % 1026,6 hPa 0,0 mm 5,8 km/h (2 Bft) N 360 2 min 0 W/m 8,5 C 11,7 C 8,6 km/h (2 Bft)
13/03/2012 10:00 12,4 C 78 % 1026,8 hPa 0,0 mm 4,3 km/h (1 Bft) N-NE 22 2 min 0 W/m 8,7 C 12,4 C 4,3 km/h (1 Bft)
13/03/2012 10:10 12,9 C 76 % 1026,7 hPa 0,0 mm 4,7 km/h (1 Bft) N-NE 22 2 min 0 W/m 8,8 C 12,9 C 7,2 km/h (2 Bft)
13/03/2012 10:20 13,5 C 73 % 1026,7 hPa 0,0 mm 3,2 km/h (1 Bft) NE 45 2 min 0 W/m 8,8 C 13,5 C 4,0 km/h (1 Bft)
13/03/2012 10:30 13,9 C 72 % 1026,7 hPa 0,0 mm 4,3 km/h (1 Bft) N-NE 22 2 min 0 W/m 8,9 C 13,9 C 6,5 km/h (2 Bft)
13/03/2012 10:40 14,3 C 70 % 1026,7 hPa 0,0 mm 3,6 km/h (1 Bft) N-NE 22 2 min 0 W/m 8,9 C 14,3 C 7,9 km/h (2 Bft)
13/03/2012 10:50 14,7 C 70 % 1026,7 hPa 0,0 mm 9,0 km/h (2 Bft) E-NE 67 2 min 0 W/m 9,3 C 14,7 C 12,6 km/h (3 Bft)
13/03/2012 11:00 14,9 C 68 % 1026,7 hPa 0,0 mm 4,7 km/h (1 Bft) N-NE 22 2 min 0 W/m 9,0 C 14,9 C 8,6 km/h (2 Bft)
13/03/2012 11:10 15,3 C 67 % 1026,8 hPa 0,0 mm 6,8 km/h (2 Bft) N-NE 22 2 min 0 W/m 9,2 C 15,3 C 9,7 km/h (2 Bft)
13/03/2012 11:20 15,6 C 66 % 1026,8 hPa 0,0 mm 5,0 km/h (1 Bft) NE 45 2 min 0 W/m 9,3 C 15,6 C 7,2 km/h (2 Bft)
13/03/2012 11:30 16,0 C 66 % 1026,9 hPa 0,0 mm 10,1 km/h (2 Bft) N-NE 22 2 min 0 W/m 9,7 C 16,0 C 10,1 km/h (2 Bft)
13/03/2012 11:40 16,3 C 64 % 1026,9 hPa 0,0 mm 10,4 km/h (2 Bft) NE 45 2 min 0 W/m 9,5 C 16,3 C 16,2 km/h (3 Bft)
13/03/2012 11:50 16,4 C 64 % 1026,8 hPa 0,0 mm 9,4 km/h (2 Bft) NE 45 2 min 0 W/m 9,6 C 16,4 C 13,7 km/h (3 Bft)
13/03/2012 12:00 16,6 C 64 % 1026,9 hPa 0,0 mm 8,3 km/h (2 Bft) NE 45 2 min 0 W/m 9,8 C 16,6 C 10,8 km/h (2 Bft)
13/03/2012 12:10 16,9 C 62 % 1026,9 hPa 0,0 mm 9,4 km/h (2 Bft) E-NE 67 2 min 0 W/m 9,6 C 16,9 C 12,6 km/h (3 Bft)
13/03/2012 12:20 16,9 C 61 % 1026,8 hPa 0,0 mm 7,6 km/h (2 Bft) N-NE 22 2 min 0 W/m 9,3 C 16,9 C 8,6 km/h (2 Bft)
13/03/2012 12:30 17,3 C 61 % 1026,9 hPa 0,0 mm 6,5 km/h (2 Bft) E 90 2 min 0 W/m 9,7 C 17,3 C 10,4 km/h (2 Bft)
13/03/2012 12:40 17,8 C 58 % 1026,9 hPa 0,0 mm 10,4 km/h (2 Bft) N-NE 22 2 min 0 W/m 9,4 C 17,8 C 12,6 km/h (3 Bft)
13/03/2012 12:50 18,0 C 57 % 1027,0 hPa 0,0 mm 7,9 km/h (2 Bft) NE 45 2 min 0 W/m 9,4 C 18,0 C 11,9 km/h (2 Bft)
13/03/2012 13:00 18,2 C 56 % 1027,1 hPa 0,0 mm 7,6 km/h (2 Bft) NE 45 2 min 0 W/m 9,3 C 18,2 C 7,9 km/h (2 Bft)
13/03/2012 13:10 18,2 C 57 % 1027,1 hPa 0,0 mm 12,2 km/h (2 Bft) NE 45 2 min 0 W/m 9,5 C 18,2 C 16,9 km/h (3 Bft)
13/03/2012 13:20 18,1 C 58 % 1027,0 hPa 0,0 mm 10,1 km/h (2 Bft) NE 45 2 min 0 W/m 9,7 C 18,1 C 13,7 km/h (3 Bft)
13/03/2012 13:30 17,9 C 58 % 1026,7 hPa 0,0 mm 10,1 km/h (2 Bft) N 360 2 min 0 W/m 9,5 C 17,9 C 15,1 km/h (3 Bft)
13/03/2012 13:40 17,8 C 57 % 1026,6 hPa 0,0 mm 7,6 km/h (2 Bft) NE 45 2 min 0 W/m 9,2 C 17,8 C 7,6 km/h (2 Bft)
13/03/2012 13:50 17,9 C 57 % 1026,5 hPa 0,0 mm 7,9 km/h (2 Bft) N-NE 22 2 min 0 W/m 9,3 C 17,9 C 9,0 km/h (2 Bft)
13/03/2012 14:00 18,1 C 57 % 1026,5 hPa 0,0 mm 12,2 km/h (2 Bft) N-NE 22 2 min 0 W/m 9,4 C 18,1 C 19,1 km/h (3 Bft)
13/03/2012 14:10 18,3 C 57 % 1026,5 hPa 0,0 mm 10,4 km/h (2 Bft) E-NE 67 2 min 0 W/m 9,6 C 18,3 C 18,0 km/h (3 Bft)
13/03/2012 14:20 18,4 C 57 % 1026,3 hPa 0,0 mm 7,6 km/h (2 Bft) NE 45 2 min 0 W/m 9,7 C 18,4 C 10,8 km/h (2 Bft)
13/03/2012 14:30 18,5 C 56 % 1026,0 hPa 0,0 mm 10,4 km/h (2 Bft) NE 45 2 min 0 W/m 9,6 C 18,5 C 15,1 km/h (3 Bft)
13/03/2012 14:40 18,4 C 56 % 1025,9 hPa 0,0 mm 11,2 km/h (2 Bft) NE 45 2 min 0 W/m 9,5 C 18,4 C 13,3 km/h (3 Bft)
13/03/2012 14:50 18,4 C 55 % 1026,0 hPa 0,0 mm 15,1 km/h (3 Bft) N 360 2 min 0 W/m 9,2 C 18,4 C 15,1 km/h (3 Bft)
13/03/2012 15:00 18,3 C 56 % 1025,9 hPa 0,0 mm 9,0 km/h (2 Bft) N-NE 22 2 min 0 W/m 9,4 C 18,3 C 14,4 km/h (3 Bft)
13/03/2012 15:10 18,3 C 56 % 1025,8 hPa 0,0 mm 7,9 km/h (2 Bft) E-NE 67 2 min 0 W/m 9,4 C 18,3 C 16,9 km/h (3 Bft)
13/03/2012 15:20 18,3 C 55 % 1025,7 hPa 0,0 mm 9,4 km/h (2 Bft) E-NE 67 2 min 0 W/m 9,1 C 18,3 C 11,2 km/h (2 Bft)
13/03/2012 15:30 18,3 C 56 % 1025,7 hPa 0,0 mm 8,6 km/h (2 Bft) N-NE 22 2 min 0 W/m 9,4 C 18,3 C 15,1 km/h (3 Bft)
13/03/2012 15:40 18,3 C 55 % 1025,7 hPa 0,0 mm 8,6 km/h (2 Bft) NE 45 2 min 0 W/m 9,1 C 18,3 C 11,5 km/h (2 Bft)
13/03/2012 15:50 18,2 C 54 % 1025,7 hPa 0,0 mm 12,2 km/h (2 Bft) E-NE 67 2 min 0 W/m 8,7 C 18,2 C 20,9 km/h (4 Bft)
13/03/2012 16:00 18,2 C 53 % 1025,7 hPa 0,0 mm 15,1 km/h (3 Bft) N-NE 22 2 min 0 W/m 8,5 C 18,2 C 18,7 km/h (3 Bft)
13/03/2012 16:10 18,2 C 53 % 1025,6 hPa 0,0 mm 10,4 km/h (2 Bft) N-NE 22 2 min 0 W/m 8,5 C 18,2 C 16,9 km/h (3 Bft)
13/03/2012 16:20 18,1 C 53 % 1025,5 hPa 0,0 mm 8,3 km/h (2 Bft) N 360 2 min 0 W/m 8,4 C 18,1 C 10,8 km/h (2 Bft)
13/03/2012 16:30 18,2 C 53 % 1025,5 hPa 0,0 mm 8,3 km/h (2 Bft) N-NE 22 2 min 0 W/m 8,5 C 18,2 C 10,1 km/h (2 Bft)
13/03/2012 16:40 18,2 C 53 % 1025,3 hPa 0,0 mm 9,4 km/h (2 Bft) N-NE 22 2 min 0 W/m 8,5 C 18,2 C 13,3 km/h (3 Bft)
13/03/2012 16:50 18,1 C 53 % 1025,1 hPa 0,0 mm 13,0 km/h (3 Bft) N-NE 22 2 min 0 W/m 8,4 C 18,1 C 17,6 km/h (3 Bft)
13/03/2012 17:00 18,1 C 53 % 1024,9 hPa 0,0 mm 8,6 km/h (2 Bft) NE 45 2 min 0 W/m 8,4 C 18,1 C 14,0 km/h (3 Bft)
13/03/2012 17:10 18,0 C 53 % 1024,8 hPa 0,0 mm 9,0 km/h (2 Bft) N-NE 22 2 min 0 W/m 8,3 C 18,0 C 14,0 km/h (3 Bft)
13/03/2012 17:20 17,9 C 52 % 1024,8 hPa 0,0 mm 8,6 km/h (2 Bft) N-NE 22 2 min 0 W/m 7,9 C 17,9 C 12,6 km/h (3 Bft)
13/03/2012 17:30 17,8 C 52 % 1024,9 hPa 0,0 mm 6,5 km/h (2 Bft) NE 45 2 min 0 W/m 7,8 C 17,8 C 10,8 km/h (2 Bft)
13/03/2012 17:40 17,8 C 52 % 1024,8 hPa 0,0 mm 6,5 km/h (2 Bft) N-NE 22 2 min 0 W/m 7,8 C 17,8 C 7,9 km/h (2 Bft)
13/03/2012 17:50 17,7 C 52 % 1024,7 hPa 0,0 mm 11,2 km/h (2 Bft) NE 45 2 min 0 W/m 7,7 C 17,7 C 19,8 km/h (3 Bft)
13/03/2012 18:00 17,7 C 52 % 1024,8 hPa 0,0 mm 6,5 km/h (2 Bft) E-NE 67 2 min 0 W/m 7,7 C 17,7 C 7,6 km/h (2 Bft)
13/03/2012 18:10 17,7 C 52 % 1025,0 hPa 0,0 mm 6,1 km/h (2 Bft) N-NE 22 2 min 0 W/m 7,7 C 17,7 C 12,2 km/h (2 Bft)
13/03/2012 18:20 17,4 C 51 % 1025,0 hPa 0,0 mm 2,9 km/h (1 Bft) NE 45 2 min 0 W/m 7,2 C 17,4 C 3,2 km/h (1 Bft)
13/03/2012 18:30 16,9 C 52 % 1024,9 hPa 0,0 mm 5,0 km/h (1 Bft) NE 45 2 min 0 W/m 7,0 C 16,9 C 8,3 km/h (2 Bft)
13/03/2012 18:40 16,5 C 53 % 1025,1 hPa 0,0 mm 3,2 km/h (1 Bft) NE 45 2 min 0 W/m 6,9 C 16,5 C 4,0 km/h (1 Bft)
13/03/2012 18:50 16,1 C 54 % 1025,0 hPa 0,0 mm 2,5 km/h (1 Bft) NE 45 0 min 0 W/m 6,8 C 16,1 C 3,6 km/h (1 Bft)
13/03/2012 19:00 15,6 C 55 % 1025,0 hPa 0,0 mm 3,6 km/h (1 Bft) N-NE 22 0 min 0 W/m 6,6 C 15,6 C 3,6 km/h (1 Bft)
13/03/2012 19:10 15,4 C 56 % 1025,0 hPa 0,0 mm 2,2 km/h (1 Bft) N-NE 22 0 min 0 W/m 6,7 C 15,4 C 3,2 km/h (1 Bft)
13/03/2012 19:20 15,1 C 57 % 1025,0 hPa 0,0 mm 2,9 km/h (1 Bft) N-NE 22 0 min 0 W/m 6,6 C 15,1 C 6,1 km/h (2 Bft)
13/03/2012 19:30 14,8 C 58 % 1025,1 hPa 0,0 mm 3,2 km/h (1 Bft) NE 45 0 min 0 W/m 6,6 C 14,8 C 4,0 km/h (1 Bft)
13/03/2012 19:40 14,5 C 59 % 1025,2 hPa 0,0 mm 0,0 km/h (0 Bft) NE 45 0 min 0 W/m 6,6 C 14,5 C 0,0 km/h (0 Bft)
13/03/2012 19:50 14,2 C 60 % 1025,3 hPa 0,0 mm 0,0 km/h (0 Bft) N-NE 22 0 min 0 W/m 6,5 C 14,2 C 0,0 km/h (0 Bft)
13/03/2012 20:00 13,7 C 61 % 1025,3 hPa 0,0 mm 0,4 km/h (0 Bft) N-NE 22 0 min 0 W/m 6,3 C 13,7 C 0,4 km/h (0 Bft)
13/03/2012 20:10 13,2 C 63 % 1025,5 hPa 0,0 mm 0,0 km/h (0 Bft) NE 45 0 min 0 W/m 6,3 C 13,2 C 0,0 km/h (0 Bft)
13/03/2012 20:20 12,7 C 63 % 1025,6 hPa 0,0 mm 0,0 km/h (0 Bft) NE 45 0 min 0 W/m 5,8 C 12,7 C 0,0 km/h (0 Bft)
13/03/2012 20:30 12,3 C 64 % 1025,6 hPa 0,0 mm 0,7 km/h (0 Bft) NE 45 0 min 0 W/m 5,7 C 12,3 C 0,7 km/h (0 Bft)
13/03/2012 20:40 12,1 C 65 % 1025,4 hPa 0,0 mm 0,7 km/h (0 Bft) NE 45 0 min 0 W/m 5,7 C 12,1 C 3,2 km/h (1 Bft)
13/03/2012 20:50 12,1 C 66 % 1025,5 hPa 0,0 mm 2,9 km/h (1 Bft) NE 45 0 min 0 W/m 5,9 C 12,1 C 5,8 km/h (2 Bft)
13/03/2012 21:00 12,2 C 66 % 1025,4 hPa 0,0 mm 2,5 km/h (1 Bft) N-NE 22 0 min 0 W/m 6,0 C 12,2 C 3,6 km/h (1 Bft)
13/03/2012 21:10 12,3 C 66 % 1025,5 hPa 0,0 mm 3,6 km/h (1 Bft) N-NE 22 0 min 0 W/m 6,1 C 12,3 C 4,3 km/h (1 Bft)
13/03/2012 21:20 12,4 C 66 % 1025,5 hPa 0,0 mm 5,0 km/h (1 Bft) N-NE 22 0 min 0 W/m 6,2 C 12,4 C 7,6 km/h (2 Bft)
13/03/2012 21:30 12,4 C 66 % 1025,5 hPa 0,0 mm 3,2 km/h (1 Bft) N-NE 22 0 min 0 W/m 6,2 C 12,4 C 4,3 km/h (1 Bft)
13/03/2012 21:40 12,3 C 66 % 1025,6 hPa 0,0 mm 3,2 km/h (1 Bft) N-NE 22 0 min 0 W/m 6,1 C 12,3 C 6,5 km/h (2 Bft)
13/03/2012 21:50 12,0 C 67 % 1025,6 hPa 0,0 mm 2,5 km/h (1 Bft) NE 45 0 min 0 W/m 6,1 C 12,0 C 7,2 km/h (2 Bft)
13/03/2012 22:00 11,8 C 67 % 1025,6 hPa 0,0 mm 1,4 km/h (1 Bft) N-NE 22 0 min 0 W/m 5,9 C 11,8 C 4,3 km/h (1 Bft)
13/03/2012 22:10 11,5 C 68 % 1025,6 hPa 0,0 mm 3,6 km/h (1 Bft) NE 45 0 min 0 W/m 5,8 C 11,5 C 4,3 km/h (1 Bft)
13/03/2012 22:20 11,4 C 68 % 1025,5 hPa 0,0 mm 4,0 km/h (1 Bft) N-NE 22 0 min 0 W/m 5,7 C 11,4 C 7,2 km/h (2 Bft)
13/03/2012 22:30 11,3 C 69 % 1025,6 hPa 0,0 mm 2,9 km/h (1 Bft) NE 45 0 min 0 W/m 5,8 C 11,3 C 4,3 km/h (1 Bft)
13/03/2012 22:40 11,4 C 69 % 1025,7 hPa 0,0 mm 2,9 km/h (1 Bft) N-NE 22 0 min 0 W/m 5,9 C 11,4 C 6,1 km/h (2 Bft)
13/03/2012 22:50 11,4 C 69 % 1025,7 hPa 0,0 mm 4,3 km/h (1 Bft) NE 45 0 min 0 W/m 5,9 C 11,4 C 4,3 km/h (1 Bft)
13/03/2012 23:00 11,3 C 69 % 1025,6 hPa 0,0 mm 3,6 km/h (1 Bft) N 360 0 min 0 W/m 5,8 C 11,3 C 7,2 km/h (2 Bft)
13/03/2012 23:10 11,1 C 69 % 1025,6 hPa 0,0 mm 3,2 km/h (1 Bft) NE 45 0 min 0 W/m 5,6 C 11,1 C 4,3 km/h (1 Bft)
13/03/2012 23:20 11,0 C 70 % 1025,5 hPa 0,0 mm 4,0 km/h (1 Bft) N-NE 22 0 min 0 W/m 5,7 C 11,0 C 7,6 km/h (2 Bft)
13/03/2012 23:30 10,9 C 70 % 1025,6 hPa 0,0 mm 5,4 km/h (2 Bft) N-NE 22 0 min 0 W/m 5,6 C 10,9 C 6,8 km/h (2 Bft)
13/03/2012 23:40 10,8 C 71 % 1025,5 hPa 0,0 mm 5,0 km/h (1 Bft) N-NE 22 0 min 0 W/m 5,8 C 10,8 C 7,6 km/h (2 Bft)
13/03/2012 23:50 10,6 C 72 % 1025,5 hPa 0,0 mm 3,6 km/h (1 Bft) N-NE 22 0 min 0 W/m 5,8 C 10,6 C 4,3 km/h (1 Bft)
_ Min-Heure 07:40 18:20 17:50 - 20:20 - - - - 06:20 06:30 20:20
Minimum _ 4,9 C 51 % 1024,7 hPa - 0,0 km/h (0 Bft) - - - - 3,2 C 3,9 C 0,0 km/h (0 Bft)
_ Max-Heure 14:30 08:50 13:10 23:50 16:00 - - 18:40 23:50 12:00 14:30 15:50
Maximum _ 18,5 C 92 % 1027,1 hPa 0,0 mm 15,1 km/h
N-NE (3 Bft)
- - 2 min 0 W/m 9,8 C 18,5 C 20,9 km/h
E-NE (4 Bft)
Moyenne _ 11,8 C 71 % 1026,0 hPa #0,0 mm 4,4 km/h (1 Bft) NE - #2:16 h 0 W/m 6,4 C 11,8 C 6,7 km/h (2 Bft)
Saint Bonnet de Bellac- Haute Vienne - France